Location: Newark
(30.0333°N, 31.2167°E)
Time: 14:59:30
(UTC+00:00)

Tiros 1 despin weight - Pass Details

Date: 26 January 2020
Orbit: 594 x 642 km, 48.2° (Epoch: 23 February)

Event Time Altitude Azimuth Distance (km) Brightness Sun altitude
Rises 16:47:35 0° 292° (WNW) 2,930 ? -17.6°
Reaches altitude 10° 16:50:33 10° 273° (W) 2,023 ? -18.3°
Maximum altitude 16:53:39 18° 231° (SW) 1,575 ? -18.9°
Drops below altitude 10° 16:56:45 10° 189° (S) 2,020 ? -19.6°
Sets 16:59:44 0° 170° (S) 2,924 ? -20.2°
